www.pogodaiklimat.ru
ПОГОДА в Саттахипе
Время
(UTC), дата
18 27.06
21 27.06
00 28.06
03 28.06
06 28.06
09 28.06
12 28.06
15 28.06
18 28.06
21 28.06
00 29.06
03 29.06
06 29.06
09 29.06
12 29.06
15 29.06
18 29.06
21 29.06
00 30.06
03 30.06
06 30.06
09 30.06
12 30.06
15 30.06
18 30.06
21 30.06
00 1.07
03 1.07
06 1.07
09 1.07
12 1.07
15 1.07
18 1.07
21 1.07
00 2.07
03 2.07
06 2.07
09 2.07
12 2.07
15 2.07
18 2.07
21 2.07
00 3.07
03 3.07
06 3.07
09 3.07
12 3.07
15 3.07
18 3.07
21 3.07
00 4.07
03 4.07
06 4.07
09 4.07
12 4.07
15 4.07
Ветер
(напр.,м/с)
Видим. Явления Облачность Т
(С)
Тd
(С)
f
(%)
Тe
(С)
Тes
(С)
Комфортность P
(гПа)
Po
(гПа)
Тmin
(С)
Tmax
(С)
R
(мм)
R24
(мм)
S
(см)
штиль 0 10 км 5/1 600 м
[Cu hum Ac lent Cs]
+26.0 +24.8 93 +37 +37 очень
душно
1007.4 1004.9 6.8
С 2 10 км {ливн. дождь} 8/1 600 м
[Cu hum Ac lent Cs]
+25.3 +24.3 94 +35 +35 очень
душно
1006.0 1003.5 1
штиль 0 10 км {ливн. дождь} 8/1 600 м
[Cu hum Ac lent Cs]
+26.2 +24.9 93 +37 +39 очень
душно
1007.1 1004.6 +25.0 8 7.8
Ю 5 10 км 8/3 600 м
[Cu Sc Ac As Cs]
+31.0 +25.0 70 +44 +48 опасность
перегрева
1009.1 1006.7
штиль 0 8000 м слаб. дождь 9/3 300 м
[Cu Sc Ac As Cs]
+29.9 +26.3 81 +46 +57 опасность
перегрева
1008.0 1005.6 0.4 1.4
Ю 3 10 км {гроза, дождь} 8/1 600 м
[Cu Sc Ac As Cs]
+31.0 +26.0 75 +46 +50 опасность
перегрева
1006.6 1004.2 0.2
Ю 5 8000 м дымка {гроза, дождь} 8/1 600 м
[Cu Sc Ac trans Cs]
+29.3 +25.3 79 +43 +43 опасность
перегрева
1007.0 1004.6 +33.0 0.6 1.6
Ю 4 8000 м зарница 8/3 600 м
[Cu Sc Ac As Cs]
+27.7 +24.5 83 +39 +39 очень
душно
1008.3 1005.9
штиль 0 8000 м дымка 6/1 600 м
[Cu Sc Ac As Cs]
+27.8 +24.6 83 +39 +39 очень
душно
1007.0 1004.5 1.6
штиль 0 8000 м дымка 5/1 600 м
[Cu hum Ac trans Cs]
+27.1 +24.9 88 +39 +39 очень
душно
1006.0 1003.6
штиль 0 9000 м дымка 8/3 600 м
[Cu Sc Ac As Cs]
+27.9 +25.9 89 +42 +43 опасность
перегрева
1006.7 1004.2 +24.9 0.6
Ю 2 9000 м дымка 8/3 600 м
[Cu Sc Ac As Cs]
+30.0 +25.0 75 +43 +50 опасность
перегрева
1008.3 1005.8
ЮЗ 2 9000 м слаб. дождь 10/4 600 м
[Cu Sc Ac As Cs]
+29.0 +26.8 88 +45 +51 опасность
перегрева
1007.2 1004.8 2 1.9
Ю 4 10 км {дождь} 9/3 600 м
[Cu Sc Ac As Cs]
+30.2 +24.9 73 +43 +45 опасность
перегрева
1005.6 1003.2 0.2
штиль 0 10 км {дождь} 8/3 600 м
[Cu Sc Ac trans Cs]
+29.3 +25.3 79 +43 +43 опасность
перегрева
1006.2 1003.8 +30.5 2 1.9
Ю 8 8000 м гроза, ливневой дождь 10/3 300 м
[Cb cap Ac As Cs]
+27.4 +25.8 91 +41 +41 опасность
перегрева
1007.5 1005.1 30
ЮЗ 6 8000 м гроза, ливневой дождь 10/4 300 м
[Cb cap Ac As Cs]
+27.5 +25.1 87 +40 +40 очень
душно
1007.1 1004.6 0.7 32.1
штиль 0 8000 м дымка {гроза} 9/3 600 м
[Cu Sc Ac As Cs]
+26.4 +25.3 94 +38 +38 очень
душно
1006.7 1004.2 2
Ю 2 10 км {гроза, дождь} 8/1 600 м
[Cu hum Ac trans Cs]
+27.0 +25.9 94 +40 +41 очень
душно
1007.7 1005.3 +25.9 34 34.3
Ю 6 10 км 8/3 600 м
[Cu hum Ac trans Cs]
+32.0 +24.9 66 +45 +48 опасность
перегрева
1008.6 1006.2
ЮЗ 4 10 км 8/3 600 м
[Cu Sc Ac As Cs]
+33.3 +24.0 58 +45 +51 опасность
перегрева
1007.0 1004.6 32.6
Ю 8 10 км 9/3 600 м
[Cu Sc Ac As Cs]
+30.7 +24.7 70 +43 +44 опасность
перегрева
1005.7 1003.3
Ю 2 10 км 9/3 600 м
[Cu Sc Ac trans Cs]
+29.5 +25.1 77 +43 +43 опасность
перегрева
1006.4 1004.0 +33.8 32.4
Ю 8 10 км 8/1 600 м
[Cu Sc Ac trans Cs]
+29.0 +24.1 75 +40 +40 очень
душно
1008.1 1005.7
Ю 10 10 км 9/3 600 м
[Cu Sc Ac As Cs]
+29.1 +22.5 68 +38 +38 очень
душно
1006.8 1004.4 2.2
Ю 6 10 км 9/3 600 м
[Cu Sc Ac As Cs]
+28.7 +22.4 69 +38 +38 очень
душно
1006.4 1004.0
Ю 3 10 км 8/3 600 м
[Cu Sc Ac As Cs]
+28.0 +23.3 76 +38 +38 очень
душно
1007.5 1005.0 +26.0
Ю 3 10 км 6/1 600 м
[Cu Sc Ac trans Cs]
+32.5 +23.9 61 +44 +53 опасность
перегрева
1007.9 1005.5
Ю 4 10 км 6/1 600 м
[Cu hum Ac trans Cs]
+34.2 +23.3 53 +45 +54 опасность
перегрева
1006.0 1003.6
Ю 8 10 км 5/1 600 м
[Cu hum Ac trans Cs]
+33.4 +25.1 62 +47 +48 опасность
перегрева
1004.4 1002.0
С 8 9000 м гроза, ливневой дождь 10/5 300 м
[Cu Sc As op]
+26.2 +23.1 83 +35 +35 очень
душно
1006.5 1004.0 +33.5 0.8 0.8
штиль 0 9000 м слаб. дождь {гроза} 10/4 300 м
[Cu Sc As trans]
+25.0 +23.5 91 +34 +34 очень
душно
1008.1 1005.6 9
штиль 0 8000 м дымка {гроза, дождь} 9/3 600 м
[Cu Sc Ac As Cs]
+25.3 +24.1 93 +35 +35 очень
душно
1006.2 1003.8 0.1 9.5
штиль 0 8000 м дымка 8/3 600 м
[Cu Sc Ac As Cs]
+26.0 +25.1 95 +37 +37 очень
душно
1004.6 1002.2
штиль 0 10 км 8/1 600 м
[Cu hum Ac As Cs]
+27.2 +26.2 94 +41 +42 опасность
перегрева
1006.0 1003.6 +24.4 9.5
ЮЗ 8 10 км 9/3 600 м
[Cu Sc Ac As Cs]
+31.2 +25.3 71 +45 +46 опасность
перегрева
1006.8 1004.4
ЮЗ 4 10 км 8/3 600 м
[Cu med, cong Ac trans Cs]
+33.0 +26.0 67 +49 +55 опасность
перегрева
1005.5 1003.1 9.5
ЮЗ 10 10 км 8/3 600 м
[Cu Sc Ac As Cs]
+32.3 +24.9 65 +46 +46 опасность
перегрева
1003.7 1001.4
З 6 10 км 9/3 600 м
[Cb calv Ac As Cs]
+30.0 +24.3 72 +42 +42 опасность
перегрева
1004.8 1002.4 +35.0 8.7
ЮЗ 4 10 км 9/3 600 м
[Cu Sc Ac As Cs]
+30.0 +23.5 68 +41 +41 опасность
перегрева
1007.8 1005.4
Ю 4 10 км 8/3 600 м
[Cu Sc Ac und Cs]
+29.0 +23.2 71 +39 +39 очень
душно
1005.7 1003.3
Ю 4 10 км 8/3 600 м
[Cu Sc Ac As Cs]
+28.7 +23.3 73 +39 +39 очень
душно
1004.8 1002.4
З 6 10 км 9/3 600 м
[Cb cap Ac As Cs]
+28.3 +24.0 78 +39 +40 очень
душно
1006.8 1004.4 +27.4
ЮЗ 6 10 км 10/3 600 м
[Cu Sc Ac As Cs]
+31.3 +24.5 67 +44 +46 опасность
перегрева
1008.5 1006.1
Ю 8 10 км 10/3 600 м
[Cu Sc Ac As Cs]
+31.6 +26.1 73 +48 +49 опасность
перегрева
1007.4 1005.0
ЮЗ 6 10 км 9/3 600 м
[Cu Sc Ac As Cs]
+31.6 +25.1 69 +46 +47 опасность
перегрева
1006.0 1003.6
З 8 9000 м дымка {ливн. дождь} 10/3 600 м
[Cu Sc Ac As Cs]
+27.5 +22.3 73 +36 +36 очень
душно
1007.2 1004.8 +32.3 3 3.1
С 4 9000 м дымка 9/1 600 м
[Cu Sc Ac As Cs]
+26.4 +23.2 83 +36 +36 очень
душно
1008.4 1005.9
С 2 10 км 10/1 600 м
[Cu Sc Ac As Cs]
+25.7 +23.9 90 +35 +35 очень
душно
1009.3 1006.8 3.1
С 2 10 км 9/3 600 м
[Cu hum Ac As Cs]
+25.6 +24.3 93 +36 +36 очень
душно
1007.9 1005.4
штиль 0 9000 м слаб. дождь 10/3 300 м
[Cu Sc Ac As Cs]
+26.1 +25.2 95 +38 +38 очень
душно
1008.9 1006.4 +25.3 0.3 3.4
Ю 6 8000 м слаб. ливневой дождь 9/4 600 м
[Cu Sc Ac As Cs]
+30.0 +25.8 78 +45 +47 опасность
перегрева
1009.9 1007.5 2
Ю 6 8000 м дымка {ливн. дождь, дождь} 8/3 600 м
[Cu Sc Ac As Cs]
+31.4 +25.3 70 +45 +49 опасность
перегрева
1008.1 1005.7 0.5 5.7
штиль 0 10 км 8/3 600 м
[Cu Sc Ac As Cs]
+31.0 +24.6 69 +44 +48 опасность
перегрева
1006.6 1004.2
штиль 0 10 км 8/3 600 м
[Cu Sc Ac As Cs]
+29.1 +25.4 80 +42 +42 опасность
перегрева
1007.0 1004.6 +32.4 2.6
штиль 0 10 км 9/1 600 м
[Cu hum Ac As Cs]
+27.6 +26.2 92 +42 +42 опасность
перегрева
1009.1 1006.6
Местоположение метеостанции Саттахип (Таиланд): широта 12.68 долгота 100.98 высота над уровнем моря 18 м.
В архиве по умолчанию представлена погода в Саттахипе за последнюю неделю. Архивные данные за месяц целиком и за предыдущие месяцы, начиная с января 2011 года, Вы можете получить, выбрав интересующий диапазон дат из раскрывающегося списка и нажав кнопку "Найти!".
*Определитесь, кто Вы:
Внимание! Время в таблицах - всемирное. Для получения местного времени необходимо прибавить поправку, которая равна 7 ч.
Смотрите также архив погоды в соседних городах и на ближайших метеорологических станциях:
Партнеры нашего сайта:      
Пояснения к столбцам:
  • Ветер - указаны скорость ветра в м/с - средняя за 10 мин, порывы в срок и между сроками (в фигурных скобках) и направление, откуда дует ветер: С - северный,
  • СВ - северо-восточный, В - восточный, ЮВ - юго-восточный, Ю - южный, ЮЗ - юго-западный, З - западный, СЗ - северо-западный.
  • Видимость - горизонтальная дальность видимости в метрах или километрах. При видимости от 1 до 10 км при отсутствии осадков обычно наблюдается дымка, при ухудшении видимости до 1 км и менее - туман. В сухую погоду видимость может ухудшаться дымом, пылью или мглою.
  • Явления - указаны атмосферные явления, наблюдавшиеся в срок или в последний час перед сроком; фигурными скобками обозначены явления, наблюдавшиеся между сроками (за 1-3 часа до срока); квадратными скобками обозначены град или гололедные отложения с указанием их диаметра в мм.
  • Облачность - указаны через наклонную черту общая и нижняя облачность в баллах и высота нижней границы облаков в метрах; квадратными скобками обозначены формы облаков: Ci - перистые, Cs - перисто-слоистые, Cc - перисто-кучевые, Ac - высококучевые, As - высокослоистые, Sc - слоисто-кучевые, Ns - слоисто-дождевые, Cu - кучевые, Cb - кучево-дождевые. Подробнее классификацию облаков см. в Атласе облаков (PDF).
  • T - Температура воздуха - температура, измеренная на высоте 2 м над землей.
  • Td - Температура точки росы - температура, при понижении до которой содержащийся в воздухе водяной пар достигнет насыщения.
  • f - Относительная влажность воздуха - влажноcть воздуха, измеренная на высоте 2 м над землей.
  • Te - Эффективная температура - температура, которую ощущает одетый по сезону человек в тени. Характеристика душности погоды. При расчете учитывается влияние влажности воздуха и скорости ветра на теплоощущения человека.
  • Tes - Эффективная температура на солнце - температура, которую ощущает человек, с поправкой на солнечный нагрев. Характеристика знойности погоды. Зависит от высоты солнца над горизонтом, облачности и скорости ветра. Ночью, в пасмурную погоду, а также при ветре 12 м/с и более поправка равна нулю.
  • P - Атмосферное давление - приведенное к уровню моря атмосферное давление.
  • Po - Атмосферное давление - измеренное на уровне метеостанции атмосферное давление.
  • Tmin - Минимальная температура - минимум температуры воздуха на высоте 2 м над землей.
  • Tmax - Максимальная температура - максимум температуры воздуха на высоте 2 м над землей.
  • R - Количество осадков - Количество выпавших осадков за период времени, мм. При наведении курсора мыши на число - период времени, за который выпало указанное количество осадков.
  • R24 - Количество осадков - Количество выпавших осадков за 24 часа, мм.
  • S - Снежный покров - Высота снежного покрова, см. При наведении курсора мыши на число - состояние снежного покрова и степень покрытия местности в баллах.